GW6025 Weather Reports


Display with metric or nautical units.
time (UTC)temp
F
wind
direction
speed
MPH
gust
MPH
rain 1hr
in
rain 24hr
in
rain mn
in
humidity
%
barometer
mb
20260906060854 80 163 0.0 0.0 0.00 0.00 0.00 85 1008.6
20260906060352 80 163 0.0 0.0 0.00 0.00 0.00 84 1008.6
20260906055847 80 163 0.0 0.0 0.00 0.00 0.00 83 1008.5
20260906055343 80 163 0.0 0.0 0.00 0.00 0.00 83 1008.7
20260906054838 80 163 0.0 0.0 0.00 0.00 0.00 84 1008.5
20260906054333 80 163 0.0 0.0 0.00 0.00 0.00 84 1008.7
20260906053829 80 163 0.0 0.0 0.00 0.00 0.00 83 1008.7
20260906053325 80 163 0.0 0.0 0.00 0.00 0.00 83 1008.8
20260906052820 80 163 0.0 0.0 0.00 0.00 0.00 83 1008.5
20260906052316 80 163 0.0 0.0 0.00 0.00 0.00 83 1008.7
20260906051813 81 163 0.0 0.0 0.00 0.00 0.00 83 1008.6
20260906051313 81 164 0.0 0.0 0.00 0.00 0.00 82 1008.6
20260906050808 81 163 0.0 0.0 0.00 0.00 0.00 84 1008.4
20260906050303 81 163 0.0 0.0 0.00 0.00 0.00 85 1008.5
20260906045802 81 163 0.0 0.0 0.00 0.00 0.00 85 1008.5
20260906045256 81 163 0.0 0.0 0.00 0.00 0.00 84 1008.5
20260906044753 81 163 0.0 0.0 0.00 0.00 0.00 83 1008.6
20260906044247 81 163 0.0 0.0 0.00 0.00 0.00 82 1008.6
20260906043743 81 163 0.0 0.0 0.00 0.00 0.00 81 1008.6
20260906043239 81 163 0.0 0.0 0.00 0.00 0.00 81 1008.4
20260906042739 81 163 0.0 0.0 0.00 0.00 0.00 82 1008.4
20260906042238 81 163 0.0 0.0 0.00 0.00 0.00 82 1008.4
20260906041733 81 163 0.0 0.0 0.00 0.00 0.00 82 1008.5
20260906041228 82 163 0.0 0.0 0.00 0.00 0.00 82 1008.6
20260906040724 82 163 0.0 0.0 0.00 0.00 0.00 83 1008.3
20260906040219 82 163 0.0 0.0 0.00 0.00 0.00 83 1008.3
20260906035715 82 163 0.0 0.0 0.00 0.00 0.00 83 1008.5
20260906035211 82 163 0.0 0.0 0.00 0.00 0.00 82 1008.5
20260906034710 82 163 0.0 0.0 0.00 0.00 0.00 82 1008.6
20260906034205 82 163 0.0 0.0 0.00 0.00 0.00 82 1008.4
20260906033701 83 163 0.0 0.0 0.00 0.00 0.00 79 1008.6
20260906033200 83 163 0.0 0.0 0.00 0.00 0.00 77 1008.5
20260906032657 83 163 0.0 0.0 0.00 0.00 0.00 76 1008.5
20260906032152 83 163 0.0 0.0 0.00 0.00 0.00 76 1008.5
20260906031647 83 163 0.0 0.0 0.00 0.00 0.00 75 1008.5
20260906031143 84 163 0.0 0.0 0.00 0.00 0.00 75 1008.3
20260906030642 84 163 0.0 0.0 0.00 0.00 0.00 76 1008.4
20260906030137 84 163 0.0 0.0 0.00 0.00 0.00 76 1008.3
20260906025637 84 163 0.0 0.0 0.00 0.00 0.00 74 1008.5
20260906025136 84 163 0.0 0.0 0.00 0.00 0.00 74 1008.6
20260906024630 84 163 0.0 0.0 0.00 0.00 0.00 73 1008.5
20260906024124 85 163 0.0 0.0 0.00 0.00 0.00 72 1008.5
20260906023621 85 163 0.0 0.0 0.00 0.00 0.00 72 1008.5
20260906023120 85 163 0.0 0.0 0.00 0.00 0.00 72 1008.2
20260906022615 85 163 0.0 0.0 0.00 0.00 0.00 73 1008.2
20260906022111 85 163 0.0 0.0 0.00 0.00 0.00 72 1008.4
20260906021607 85 163 0.0 0.0 0.00 0.00 0.00 72 1008.3
20260906021106 85 163 0.0 0.0 0.00 0.00 0.00 72 1008.4
20260906020605 85 163 0.0 0.0 0.00 0.00 0.00 72 1008.2
20260906020100 86 163 0.0 0.0 0.00 0.00 0.00 71 1008.1
20260906015600 86 163 0.0 0.0 0.00 0.00 0.00 70 1007.7
20260906015059 86 162 0.0 0.0 0.00 0.00 0.00 71 1008.0
20260906014554 86 162 0.0 0.0 0.00 0.00 0.00 71 1008.2
20260906014050 87 162 0.0 0.0 0.00 0.00 0.00 71 1007.9
20260906013545 87 162 0.0 0.0 0.00 0.00 0.00 71 1007.9
20260906013040 87 162 0.0 0.0 0.00 0.00 0.00 71 1007.8
20260906012535 87 162 0.0 0.0 0.00 0.00 0.00 69 1007.7
20260906012035 87 162 0.0 0.0 0.00 0.00 0.00 67 1007.5
20260906011531 88 162 0.0 0.0 0.00 0.00 0.00 67 1007.6
20260906011031 88 163 0.0 0.0 0.00 0.00 0.00 68 1007.4
20260906010526 89 163 0.0 0.0 0.00 0.00 0.00 68 1007.5
20260906010023 89 163 0.0 0.0 0.00 0.00 0.00 67 1007.4
20260906005521 89 163 0.0 0.0 0.00 0.00 0.00 67 1007.5
20260906005020 90 163 0.0 0.0 0.00 0.00 0.00 65 1007.3
20260906004515 90 163 0.0 0.0 0.00 0.00 0.00 62 1007.4
20260906004010 91 162 0.0 0.0 0.00 0.00 0.00 61 1007.5
20260906003505 92 162 0.0 0.0 0.00 0.00 0.00 60 1007.4
20260906003001 92 162 0.0 0.0 0.00 0.00 0.00 58 1007.3
20260906002500 93 162 0.0 0.0 0.00 0.00 0.00 57 1007.3
20260906001955 93 162 0.0 0.0 0.00 0.00 0.00 55 1007.4
20260906001451 94 162 0.0 0.0 0.00 0.00 0.00 52 1007.5
20260906000945 95 162 0.0 0.0 0.00 0.00 0.00 52 1007.4
20260906000441 95 162 0.0 0.0 0.00 0.00 0.00 51 1007.3
20260905235936 96 162 0.0 0.0 0.00 0.00 0.00 49 1007.5
20260905235436 96 162 0.0 0.0 0.00 0.00 0.00 49 1007.3
20260905234931 96 162 0.0 0.0 0.00 0.00 0.00 48 1007.4
20260905234426 97 162 0.0 0.0 0.00 0.00 0.00 48 1007.5
20260905233920 97 162 0.0 0.0 0.00 0.00 0.00 47 1007.6
20260905233416 97 171 0.0 0.0 0.00 0.00 0.00 47 1007.4
20260905232915 98 166 0.0 0.0 0.00 0.00 0.00 47 1007.6
20260905232411 98 164 0.0 1.0 0.00 0.00 0.00 47 1007.6
20260905231906 99 167 0.0 1.0 0.00 0.00 0.00 46 1007.5
20260905231402 99 171 0.0 0.0 0.00 0.00 0.00 46 1007.7
20260905230859 100 164 0.0 1.0 0.00 0.00 0.00 45 1007.5
20260905230356 101 179 0.0 1.0 0.00 0.00 0.00 44 1007.6
20260905225855 102 175 1.0 1.0 0.00 0.00 0.00 43 1007.7
20260905225350 102 180 0.0 1.0 0.00 0.00 0.00 42 1007.5
20260905224845 101 177 0.0 1.0 0.00 0.00 0.00 43 1007.6
20260905224341 100 181 0.0 1.0 0.00 0.00 0.00 44 1007.4
20260905223836 100 181 1.0 2.0 0.00 0.00 0.00 44 1007.5
20260905223334 100 165 0.0 3.0 0.00 0.00 0.00 45 1007.4
20260905222828 100 165 1.0 2.0 0.00 0.00 0.00 44 1007.4
20260905222327 102 150 1.0 6.0 0.00 0.00 0.00 43 1007.5
20260905221818 102 177 0.0 2.0 0.00 0.00 0.00 44 1007.5
20260905221314 103 175 1.0 3.0 0.00 0.00 0.00 43 1007.5
20260905220810 103 184 0.0 1.0 0.00 0.00 0.00 42 1007.7
20260905220306 103 170 0.0 2.0 0.00 0.00 0.00 42 1007.7
20260905215805 103 201 1.0 2.0 0.00 0.00 0.00 42 1007.7
20260905215301 103 177 0.0 2.0 0.00 0.00 0.00 43 1007.6
20260905214756 103 176 0.0 3.0 0.00 0.00 0.00 42 1007.7
20260905214252 103 140 2.0 3.0 0.00 0.00 0.00 41 1007.6
20260905213747 103 237 2.0 3.0 0.00 0.00 0.00 40 1007.4
20260905213243 105 338 2.0 3.0 0.00 0.00 0.00 38 1007.5
20260905212738 104 192 1.0 2.0 0.00 0.00 0.00 37 1007.5
20260905212237 103 178 0.0 2.0 0.00 0.00 0.00 38 1007.6
20260905211737 103 145 1.0 1.0 0.00 0.00 0.00 39 1007.9
20260905211232 103 303 3.0 4.0 0.00 0.00 0.00 38 1007.6
20260905210729 103 161 0.0 3.0 0.00 0.00 0.00 40 1007.8
20260905210228 105 139 2.0 4.0 0.00 0.00 0.00 37 1007.9
20260905205727 104 181 1.0 2.0 0.00 0.00 0.00 40 1008.0
20260905205222 104 135 1.0 2.0 0.00 0.00 0.00 39 1007.9
20260905204722 104 174 0.0 3.0 0.00 0.00 0.00 39 1008.1
20260905204217 105 191 2.0 4.0 0.00 0.00 0.00 38 1008.1
20260905203711 104 164 1.0 1.0 0.00 0.00 0.00 39 1008.1
20260905203207 104 162 1.0 2.0 0.00 0.00 0.00 40 1008.4
20260905202703 102 192 2.0 2.0 0.00 0.00 0.00 40 1008.3
20260905202157 101 174 1.0 2.0 0.00 0.00 0.00 42 1008.6
20260905201653 101 174 0.0 4.0 0.00 0.00 0.00 42 1008.5
20260905201153 102 170 3.0 6.0 0.00 0.00 0.00 40 1008.5
20260905200648 104 153 2.0 6.0 0.00 0.00 0.00 40 1008.5
20260905200144 104 154 0.0 4.0 0.00 0.00 0.00 39 1008.5
20260905195642 104 208 0.0 2.0 0.00 0.00 0.00 39 1008.6
20260905195137 104 185 1.0 6.0 0.00 0.00 0.00 39 1008.7
20260905194632 103 223 2.0 4.0 0.00 0.00 0.00 39 1008.8
20260905194131 102 312 4.0 7.0 0.00 0.00 0.00 39 1008.9
20260905193627 104 178 4.0 8.0 0.00 0.00 0.00 40 1009.0
20260905193127 104 191 1.0 6.0 0.00 0.00 0.00 41 1009.1
20260905192622 103 156 0.0 2.0 0.00 0.00 0.00 42 1009.1
20260905192119 100 161 1.0 2.0 0.00 0.00 0.00 41 1009.2
20260905191618 101 147 1.0 2.0 0.00 0.00 0.00 41 1009.2
20260905191116 103 140 1.0 2.0 0.00 0.00 0.00 40 1009.5
20260905190614 103 177 1.0 4.0 0.00 0.00 0.00 38 1009.3
20260905190109 104 38 3.0 4.0 0.00 0.00 0.00 38 1009.3
20260905185608 104 157 0.0 4.0 0.00 0.00 0.00 39 1009.4
20260905185108 104 345 5.0 7.0 0.00 0.00 0.00 37 1009.5
20260905184602 104 11 6.0 9.0 0.00 0.00 0.00 38 1009.6
20260905184101 104 144 2.0 3.0 0.00 0.00 0.00 40 1009.7
20260905183601 103 26 4.0 6.0 0.00 0.00 0.00 40 1009.7
20260905183057 103 142 3.0 4.0 0.00 0.00 0.00 42 1009.6
20260905182556 103 130 0.0 3.0 0.00 0.00 0.00 42 1009.7
20260905182051 102 18 2.0 3.0 0.00 0.00 0.00 42 1009.8
20260905181551 102 140 3.0 4.0 0.00 0.00 0.00 43 1009.7
20260905181050 103 325 3.0 6.0 0.00 0.00 0.00 42 1009.7
20260905180544 102 145 1.0 3.0 0.00 0.00 0.00 44 1009.9
20260905180040 103 200 1.0 3.0 0.00 0.00 0.00 42 1010.0
20260905175539 103 179 1.0 4.0 0.00 0.00 0.00 41 1010.0
20260905175035 102 175 0.0 2.0 0.00 0.00 0.00 45 1010.2
20260905174530 101 167 0.0 3.0 0.00 0.00 0.00 47 1010.2
20260905174026 100 353 3.0 4.0 0.00 0.00 0.00 43 1010.2
20260905173522 101 231 2.0 3.0 0.00 0.00 0.00 44 1010.0
20260905173017 103 352 3.0 4.0 0.00 0.00 0.00 42 1010.0
20260905172515 102 4 4.0 6.0 0.00 0.00 0.00 42 1010.1
20260905172011 101 204 2.0 3.0 0.00 0.00 0.00 44 1010.4
20260905171508 100 309 3.0 3.0 0.00 0.00 0.00 45 1010.5
20260905171003 100 76 3.0 6.0 0.00 0.00 0.00 46 1010.5
20260905170500 101 20 4.0 4.0 0.00 0.00 0.00 45 1010.5
20260905165959 100 153 0.0 4.0 0.00 0.00 0.00 48 1010.3
20260905165454 99 173 1.0 1.0 0.00 0.00 0.00 48 1010.6
20260905164949 98 14 5.0 6.0 0.00 0.00 0.00 48 1010.6
20260905164443 99 14 4.0 7.0 0.00 0.00 0.00 47 1010.6
20260905163938 100 348 4.0 8.0 0.00 0.00 0.00 47 1010.9
20260905163435 99 192 3.0 4.0 0.00 0.00 0.00 50 1011.0
20260905162931 98 155 1.0 2.0 0.00 0.00 0.00 53 1011.0
20260905162426 97 162 2.0 4.0 0.00 0.00 0.00 51 1011.1
20260905161921 97 341 2.0 4.0 0.00 0.00 0.00 52 1011.1
20260905161420 97 165 3.0 4.0 0.00 0.00 0.00 51 1011.1
20260905160918 96 146 0.0 2.0 0.00 0.00 0.00 55 1011.1
20260905160412 96 321 2.0 3.0 0.00 0.00 0.00 54 1011.2
20260905155912 96 174 2.0 3.0 0.00 0.00 0.00 54 1011.3
20260905155412 95 235 1.0 2.0 0.00 0.00 0.00 54 1011.4
20260905154910 96 141 1.0 3.0 0.00 0.00 0.00 55 1011.3
20260905154407 96 245 1.0 4.0 0.00 0.00 0.00 53 1011.3
20260905153902 95 149 0.0 0.0 0.00 0.00 0.00 53 1011.2
20260905153358 94 160 1.0 1.0 0.00 0.00 0.00 57 1011.4
20260905152858 94 98 3.0 3.0 0.00 0.00 0.00 57 1011.2
20260905152357 93 165 1.0 2.0 0.00 0.00 0.00 60 1011.4
20260905151853 93 242 2.0 3.0 0.00 0.00 0.00 60 1011.4
20260905151349 92 145 1.0 3.0 0.00 0.00 0.00 63 1011.2
20260905150848 92 190 2.0 3.0 0.00 0.00 0.00 61 1011.4
20260905150343 91 127 2.0 2.0 0.00 0.00 0.00 62 1011.3
20260905145840 91 158 0.0 1.0 0.00 0.00 0.00 63 1011.4
20260905145340 91 334 2.0 3.0 0.00 0.00 0.00 63 1011.4
20260905144839 89 175 0.0 1.0 0.00 0.00 0.00 67 1011.3
20260905144335 88 299 2.0 3.0 0.00 0.00 0.00 67 1011.1
20260905143833 87 193 1.0 3.0 0.00 0.00 0.00 68 1011.2
20260905143328 87 168 0.0 2.0 0.00 0.00 0.00 68 1011.3
20260905142827 87 171 0.0 2.0 0.00 0.00 0.00 68 1011.2
20260905142321 87 258 2.0 3.0 0.00 0.00 0.00 68 1011.4
20260905141818 87 220 2.0 3.0 0.00 0.00 0.00 68 1011.5
20260905141313 87 348 2.0 3.0 0.00 0.00 0.00 67 1011.3
20260905140809 87 177 0.0 1.0 0.00 0.00 0.00 68 1011.2
20260905140308 86 187 1.0 2.0 0.00 0.00 0.00 69 1011.1
20260905135807 86 186 0.0 1.0 0.00 0.00 0.00 70 1011.2
20260905135306 86 169 0.0 0.0 0.00 0.00 0.00 70 1011.0
20260905134803 86 179 0.0 1.0 0.00 0.00 0.00 69 1011.2
20260905134302 85 192 1.0 1.0 0.00 0.00 0.00 71 1011.2
20260905133756 85 181 0.0 0.0 0.00 0.00 0.00 71 1011.2
20260905133252 84 181 0.0 0.0 0.00 0.00 0.00 73 1011.0
20260905132751 84 168 0.0 0.0 0.00 0.00 0.00 74 1011.0
20260905132247 83 163 0.0 1.0 0.00 0.00 0.00 74 1011.1
20260905131741 83 167 0.0 0.0 0.00 0.00 0.00 76 1010.9
20260905131237 82 167 0.0 0.0 0.00 0.00 0.00 77 1011.0
20260905130731 82 167 0.0 0.0 0.00 0.00 0.00 79 1011.0
20260905130225 80 161 0.0 0.0 0.00 0.00 0.00 82 1011.0
20260905125721 79 160 0.0 0.0 0.00 0.00 0.00 85 1011.1
20260905125216 79 170 0.0 0.0 0.00 0.00 0.00 86 1011.0
20260905124713 79 170 0.0 0.0 0.00 0.00 0.00 87 1011.0
20260905124208 78 174 0.0 0.0 0.00 0.00 0.00 87 1011.0
20260905123708 78 155 0.0 0.0 0.00 0.00 0.00 87 1011.0
20260905123205 78 156 0.0 0.0 0.00 0.00 0.00 87 1010.6
20260905122704 78 155 0.0 0.0 0.00 0.00 0.00 87 1010.8
20260905122200 77 155 0.0 0.0 0.00 0.00 0.00 88 1010.6
20260905121700 77 155 0.0 0.0 0.00 0.00 0.00 89 1010.9
20260905121156 77 155 0.0 0.0 0.00 0.00 0.00 89 1010.6
20260905120655 76 155 0.0 0.0 0.00 0.00 0.00 89 1010.6
20260905120150 76 155 0.0 0.0 0.00 0.00 0.00 90 1010.4
20260905115649 76 155 0.0 0.0 0.00 0.00 0.00 90 1010.8
20260905115144 76 155 0.0 0.0 0.00 0.00 0.00 90 1010.6
20260905114644 76 155 0.0 0.0 0.00 0.00 0.00 90 1010.4
20260905114142 76 155 0.0 0.0 0.00 0.00 0.00 90 1010.5
20260905113637 76 155 0.0 0.0 0.00 0.00 0.00 90 1010.3
20260905113133 76 155 0.0 0.0 0.00 0.00 0.00 90 1010.5
20260905112627 76 155 0.0 0.0 0.00 0.00 0.00 90 1010.4
20260905112124 76 155 0.0 0.0 0.00 0.00 0.00 90 1010.3
20260905111623 76 155 0.0 0.0 0.00 0.00 0.00 90 1010.4
20260905111122 76 155 0.0 0.0 0.00 0.00 0.00 91 1010.2
20260905110622 76 155 0.0 0.0 0.00 0.00 0.00 91 1010.2
20260905110117 76 155 0.0 0.0 0.00 0.00 0.00 91 1010.2
20260905105612 76 155 0.0 0.0 0.00 0.00 0.00 91 1010.2
20260905105111 76 155 0.0 0.0 0.00 0.00 0.00 91 1010.3
20260905104607 76 155 0.0 0.0 0.00 0.00 0.00 90 1010.2
20260905104106 76 155 0.0 0.0 0.00 0.00 0.00 90 1010.2
20260905103556 76 155 0.0 0.0 0.00 0.00 0.00 91 1010.3
20260905103052 76 155 0.0 0.0 0.00 0.00 0.00 91 1010.0
20260905102547 76 155 0.0 0.0 0.00 0.00 0.00 91 1010.0
20260905102044 76 155 0.0 0.0 0.00 0.00 0.00 91 1010.0
20260905101542 77 155 0.0 0.0 0.00 0.00 0.00 91 1010.1
20260905101041 77 155 0.0 0.0 0.00 0.00 0.00 91 1010.1
20260905100537 77 155 0.0 0.0 0.00 0.00 0.00 90 1010.0
20260905100037 77 155 0.0 0.0 0.00 0.00 0.00 89 1010.3
20260905095531 77 155 0.0 0.0 0.00 0.00 0.00 89 1010.2
20260905095027 77 155 0.0 0.0 0.00 0.00 0.00 89 1010.0
20260905094522 77 155 0.0 0.0 0.00 0.00 0.00 89 1010.2
20260905094021 77 155 0.0 0.0 0.00 0.00 0.00 88 1010.2
20260905093515 77 155 0.0 0.0 0.00 0.00 0.00 87 1010.0
20260905093012 77 155 0.0 0.0 0.00 0.00 0.00 87 1010.1
20260905092506 77 155 0.0 0.0 0.00 0.00 0.00 87 1010.0
20260905092002 77 155 0.0 0.0 0.00 0.00 0.00 89 1010.0
20260905091501 77 155 0.0 0.0 0.00 0.00 0.00 89 1010.0
20260905090956 77 155 0.0 0.0 0.00 0.00 0.00 88 1010.0
20260905090451 77 155 0.0 0.0 0.00 0.00 0.00 88 1009.9
20260905085950 78 155 0.0 0.0 0.00 0.00 0.00 88 1010.1
20260905085450 78 155 0.0 0.0 0.00 0.00 0.00 87 1010.1
20260905084946 78 155 0.0 0.0 0.00 0.00 0.00 87 1010.0
20260905084445 78 155 0.0 0.0 0.00 0.00 0.00 86 1010.1
20260905083940 78 155 0.0 0.0 0.00 0.00 0.00 86 1009.8
20260905083436 78 155 0.0 0.0 0.00 0.00 0.00 86 1009.9
20260905082931 78 155 0.0 0.0 0.00 0.00 0.00 85 1010.0
20260905082427 78 155 0.0 0.0 0.00 0.00 0.00 85 1010.1
20260905081922 78 155 0.0 0.0 0.00 0.00 0.00 86 1010.0
20260905081417 78 155 0.0 0.0 0.00 0.00 0.00 86 1010.0
20260905080915 78 155 0.0 0.0 0.00 0.00 0.00 86 1010.1
20260905080416 78 155 0.0 0.0 0.00 0.00 0.00 86 1010.0
20260905075914 78 155 0.0 0.0 0.00 0.00 0.00 85 1010.2
20260905075409 78 155 0.0 0.0 0.00 0.00 0.00 85 1010.1
20260905074908 79 155 0.0 0.0 0.00 0.00 0.00 84 1010.1
20260905074404 79 155 0.0 0.0 0.00 0.00 0.00 85 1010.1
20260905073900 79 155 0.0 0.0 0.00 0.00 0.00 85 1010.2
20260905073355 78 155 0.0 0.0 0.00 0.00 0.00 85 1010.1
20260905072850 79 155 0.0 0.0 0.00 0.00 0.00 85 1010.1
20260905072345 79 155 0.0 0.0 0.00 0.00 0.00 86 1010.1
20260905071841 79 155 0.0 0.0 0.00 0.00 0.00 86 1010.3
20260905071338 79 155 0.0 0.0 0.00 0.00 0.00 85 1010.1
20260905070837 79 155 0.0 0.0 0.00 0.00 0.00 84 1010.3
20260905070333 79 155 0.0 0.0 0.00 0.00 0.00 84 1010.2
20260905065832 79 155 0.0 0.0 0.00 0.00 0.00 84 1010.2
20260905065331 79 155 0.0 0.0 0.00 0.00 0.00 85 1010.2
20260905064826 80 155 0.0 0.0 0.00 0.00 0.00 85 1010.0
20260905064322 80 155 0.0 0.0 0.00 0.00 0.00 84 1010.1
20260905063820 80 155 0.0 0.0 0.00 0.00 0.00 84 1010.1
20260905063316 80 155 0.0 0.0 0.00 0.00 0.00 84 1010.2
20260905062813 80 155 0.0 0.0 0.00 0.00 0.00 84 1010.3
20260905062307 80 155 0.0 0.0 0.00 0.00 0.00 83 1010.2
20260905061802 80 155 0.0 0.0 0.00 0.00 0.00 83 1010.1
20260905061256 80 155 0.0 0.0 0.00 0.00 0.00 83 1010.1